Temperature
29 30 31 31 32 31 31 31 31 31 31 31 30 30 30 28 27 27 26 25 24 23 23 22 21 21 20 20 19 19 19 19 19 18 18 18 18 18 18 18 18 18 18 18
30 30 31 31 31 31 31 31 31 31 30 30 30 30 30 29 28 27 26 25 25 24 23 22 21 21 20 20 20 19 19 19 19 19 19 18 18 18 18 18 18 18 18 18
30 31 31 30 30 30 31 31 31 30 30 30 30 30 30 29 28 27 27 26 25 25 24 23 22 21 21 20 20 20 20 19 19 19 19 18 18 18 18 18 18 18 18 18
30 31 30 30 30 30 30 31 30 30 30 30 30 30 30 30 29 29 28 27 26 25 24 23 22 22 21 21 20 20 20 20 20 19 19 19 19 19 19 19 19 19 19 18
30 30 30 30 30 30 30 30 30 30 30 30 30 30 31 30 30 29 29 27 27 26 25 24 23 22 22 21 21 20 20 20 20 20 19 19 19 19 19 19 19 19 19 18
30 30 30 30 31 30 30 30 29 30 30 29 30 30 30 31 30 30 29 28 27 26 25 24 23 23 22 21 21 20 20 20 20 20 20 20 19 19 19 19 19 19 19 18
29 30 30 30 30 30 30 29 29 28 29 29 30 29 30 30 30 30 29 28 27 26 25 24 23 23 22 22 21 21 20 20 20 20 20 20 20 19 19 19 19 19 19 19
29 29 30 30 30 30 30 30 29 28 29 30 29 29 30 30 29 28 28 28 27 26 26 25 24 23 22 22 21 21 21 20 20 20 20 20 20 19 19 19 19 19 19 19
29 29 30 30 30 30 29 30 31 30 29 29 30 30 30 29 29 29 28 27 26 26 25 25 24 23 22 22 21 21 21 20 20 20 20 20 20 19 19 19 19 19 19 19
29 28 29 29 29 29 30 30 30 29 28 28 29 29 30 29 29 29 28 27 26 25 25 25 24 23 23 22 21 21 21 20 20 20 20 20 20 20 19 19 19 19 19 19
29 28 28 29 28 29 28 29 29 29 29 28 28 29 30 29 29 29 28 27 26 25 25 24 24 23 23 22 22 21 21 20 20 20 20 20 20 20 19 19 19 19 19 18
27 28 28 28 29 28 29 29 29 28 28 28 28 29 29 29 29 28 28 26 25 25 24 24 24 23 23 22 22 21 20 20 20 20 19 19 19 19 19 19 19 19 19 18
26 27 26 27 28 28 28 28 29 29 28 28 28 29 29 28 28 27 26 25 24 24 24 23 23 22 22 22 21 21 20 20 20 19 19 19 19 19 19 19 19 19 18 18
24 26 26 27 28 28 27 28 28 28 28 28 28 29 28 28 27 27 25 24 24 23 23 23 22 22 21 21 20 20 20 20 19 19 19 19 19 19 19 19 18 18 18 18
25 25 26 27 27 27 27 27 27 27 28 28 28 28 28 27 27 25 24 24 23 23 22 21 21 21 20 20 20 20 20 19 19 19 19 19 19 19 18 18 18 18 18 18
24 24 25 25 26 26 26 27 27 27 27 28 28 28 27 26 25 24 24 23 23 22 22 21 20 20 20 19 19 19 19 19 19 19 18 19 18 18 18 18 18 18 18 18
24 23 23 25 26 25 25 27 27 27 27 27 27 27 27 26 25 24 23 23 22 21 21 20 20 19 19 19 19 19 19 19 18 18 18 18 18 18 18 18 17 17 17 17
22 22 23 24 24 23 26 27 26 26 26 26 26 26 25 25 23 22 22 22 21 20 20 20 20 19 19 19 19 19 18 18 18 18 18 18 17 17 17 17 17 17 17 17
22 21 22 23 23 24 25 25 25 25 25 25 25 25 24 23 23 22 21 20 20 20 19 19 19 19 18 18 18 18 18 18 18 18 17 17 17 17 17 17 17 17 17 17
21 21 21 22 22 23 25 24 24 24 24 24 24 23 23 23 24 23 20 19 19 18 18 18 18 18 18 17 18 18 18 18 17 17 17 17 17 17 17 16 16 16 16 16
21 20 21 21 22 23 23 23 23 22 23 22 22 22 22 22 22 20 19 18 18 17 17 17 17 17 17 17 17 17 17 17 17 17 17 17 17 17 16 16 16 16 16 15
21 21 21 21 21 22 22 22 22 21 20 20 20 20 20 20 19 18 18 17 17 17 17 17 17 17 16 16 16 16 16 16 16 16 16 16 16 16 16 16 16 15 15 15
20 21 21 21 21 20 19 20 19 19 19 19 19 19 18 19 18 18 18 17 17 17 16 16 16 16 16 16 16 16 16 16 16 16 16 15 15 15 15 15 15 15 15 15
20 19 19 19 20 20 19 18 18 18 18 18 18 17 18 18 18 17 17 17 16 16 16 16 16 16 16 16 15 15 15 15 15 15 15 15 15 15 15 15 15 15 15 15
18 18 18 18 19 18 18 18 17 17 17 17 17 17 17 17 17 17 16 16 16 15 15 15 15 15 15 15 15 15 15 15 15 15 15 14 15 15 14 14 14 14 14 14
18 18 17 18 18 18 17 17 16 16 16 16 16 16 16 16 16 16 16 15 15 15 15 15 15 15 15 15 15 15 14 14 14 14 14 14 14 14 14 14 14 14 14 14
Wind_Speed
7 9 9 7 7 7 6 7 5 2 2 4 5 4 5 9 9 10 11 12 13 13 13 13 14 14 13 13 12 12 12 11 9 8 8 7 7 6 6 6 6 7 7 6
8 11 8 6 5 7 8 8 6 2 2 4 4 5 5 8 10 10 11 13 13 13 13 13 14 14 14 14 14 13 13 12 12 9 8 6 6 6 6 5 6 7 7 7
13 6 4 7 8 8 9 9 7 5 4 6 5 6 7 8 9 9 11 12 13 13 14 15 15 15 14 14 15 14 14 13 13 11 9 7 6 6 6 6 6 7 8 8
10 7 6 8 9 9 9 6 6 7 8 7 7 7 7 8 9 10 11 12 13 13 14 14 15 15 15 15 14 14 14 14 13 12 11 11 8 8 7 6 6 7 8 8
8 7 8 9 8 8 7 4 6 8 9 9 9 9 7 8 9 9 11 12 12 13 14 15 15 15 14 14 14 13 14 14 13 13 12 11 10 8 7 6 6 7 7 8
8 6 7 8 6 6 5 5 5 8 9 12 10 10 8 7 8 7 8 10 11 12 13 14 14 14 14 13 13 13 13 14 14 14 13 13 12 10 8 8 7 7 7 7
10 9 8 7 8 8 9 9 8 9 9 9 5 8 6 3 4 5 6 8 9 10 12 13 14 14 14 14 14 14 14 14 14 14 14 13 13 11 11 10 9 8 7 7
10 10 9 7 10 8 10 12 10 9 9 7 6 8 4 2 3 3 4 5 6 9 10 12 13 14 14 14 15 14 14 14 14 14 13 12 12 11 10 10 9 8 7 7
7 7 6 6 7 8 9 10 10 11 12 11 7 6 5 5 5 4 4 4 5 6 8 10 11 13 13 14 14 14 14 14 13 14 13 12 12 12 10 9 9 8 7 7
6 6 6 6 7 7 9 8 8 11 10 12 10 10 7 6 5 4 4 4 4 5 6 8 9 11 12 13 13 13 13 13 13 13 12 11 11 11 10 9 9 8 8 7
8 8 8 8 9 10 9 10 9 10 10 11 11 6 1 3 4 3 3 3 3 4 5 6 7 8 10 11 11 12 12 12 12 12 11 11 10 10 10 9 9 9 8 8
5 8 9 9 6 5 10 11 12 11 10 11 12 7 2 1 2 2 2 1 1 2 3 5 5 6 8 10 10 11 11 12 11 11 10 10 9 9 9 10 9 9 9 9
2 6 10 10 9 9 10 11 12 12 11 12 14 8 4 1 1 1 1 1 1 3 3 4 4 5 7 7 8 10 11 11 11 10 10 9 9 9 9 9 9 9 9 9
4 8 11 13 8 6 9 10 11 13 13 13 14 12 5 3 3 2 1 1 1 2 3 3 4 4 5 6 7 8 9 9 9 9 9 9 9 9 8 8 8 8 8 8
4 9 10 11 10 10 12 13 13 15 15 15 13 12 8 4 4 3 2 2 2 2 2 2 2 3 4 5 5 6 7 8 8 8 8 8 7 7 7 7 8 8 8 8
4 7 10 12 12 12 15 15 15 16 16 16 15 12 6 4 3 3 3 3 3 3 2 2 2 2 2 3 4 5 7 7 7 7 7 6 6 6 7 8 8 8 9 8
5 7 10 13 11 12 17 15 15 15 14 14 15 10 5 4 4 4 3 3 3 3 2 2 1 2 2 2 2 3 5 6 6 7 6 6 7 7 7 8 8 9 9 8
8 9 8 11 11 16 9 4 8 11 11 11 10 7 6 5 5 4 3 3 2 2 2 2 1 1 1 1 1 2 3 4 5 6 6 7 7 7 7 8 9 9 8 8
10 10 9 11 15 15 11 6 6 9 10 7 7 7 6 5 5 3 2 3 2 2 1 1 1 1 1 0 1 1 1 2 3 5 6 7 7 7 7 8 8 8 8 8
8 10 11 12 14 15 8 2 3 7 12 5 5 6 5 5 8 3 2 3 2 1 1 1 1 1 1 0 0 0 1 2 3 4 5 5 6 7 7 7 7 7 7 8
9 10 14 16 16 13 3 0 3 10 5 2 3 4 5 5 4 3 1 1 1 1 1 1 1 0 0 0 0 1 1 2 3 4 4 4 5 6 7 6 6 6 7 7
10 10 12 12 15 11 2 2 4 4 5 4 4 3 4 3 1 1 1 1 1 1 2 1 1 1 0 1 1 1 2 3 4 4 4 4 5 5 5 5 5 6 6 6
9 8 7 8 6 2 2 4 5 5 6 5 5 4 4 4 4 3 2 2 2 2 2 2 2 2 1 1 2 2 3 3 4 4 4 4 4 4 5 5 6 6 6 6
8 5 8 9 10 7 7 7 6 6 7 6 6 5 6 6 5 4 3 3 3 3 3 3 3 3 3 3 3 3 3 4 4 4 4 4 4 5 4 5 6 6 6 6
9 7 10 13 12 11 9 8 8 8 7 7 7 7 7 6 6 5 4 4 4 4 4 4 4 4 4 3 3 3 3 3 3 4 4 4 4 3 3 3 4 5 4 4
12 12 13 12 10 10 11 10 9 9 9 9 8 8 7 6 6 6 5 4 4 4 4 4 5 5 4 4 3 3 2 2 3 3 4 3 3 3 4 3 2 1 3 1
Wind_Direction
208 227 228 234 248 274 274 260 254 251 212 232 235 223 188 181 190 188 189 190 190 193 189 187 190 192 191 191 192 193 195 190 193 195 198 200 204 208 208 211 207 209 214 210
214 231 241 253 247 248 250 251 244 224 206 244 249 242 211 197 204 201 197 197 198 194 188 187 190 192 193 193 195 196 198 196 198 200 204 207 211 213 210 214 202 210 212 213
227 238 224 227 230 237 244 253 256 259 232 220 240 239 215 201 206 204 207 205 202 199 194 189 192 194 195 195 197 199 199 199 202 201 203 202 202 215 209 207 206 210 212 215
233 229 221 232 236 247 247 248 250 247 245 241 239 254 216 200 201 205 208 207 206 203 200 195 194 196 198 197 196 198 197 200 201 202 208 208 210 215 215 212 206 206 211 217
215 218 225 237 245 249 258 252 240 244 250 257 238 253 235 199 213 212 208 209 209 205 201 199 198 197 198 197 195 196 196 200 201 205 207 211 218 220 218 214 211 219 213 217
237 227 240 248 247 236 214 205 216 237 245 247 242 249 248 224 224 217 207 206 207 205 202 201 200 194 196 195 195 195 195 200 201 205 208 212 219 220 222 218 217 217 217 216
222 223 221 234 229 205 212 227 233 233 232 243 220 244 257 238 230 223 212 205 203 203 202 199 197 194 195 195 196 196 195 199 202 204 208 210 216 216 220 223 221 226 226 219
223 221 209 216 234 230 224 238 246 257 259 251 207 240 240 210 218 222 219 204 202 203 201 199 197 197 197 197 197 197 196 200 201 203 207 210 212 216 219 218 228 225 231 230
239 229 197 209 225 237 225 235 252 259 265 269 247 240 220 208 217 209 201 189 197 204 203 202 199 200 199 200 199 199 197 200 202 202 202 206 208 215 218 214 219 227 226 225
255 247 219 201 212 224 247 241 242 248 255 259 249 243 238 210 224 211 205 208 204 203 202 202 201 200 200 199 200 202 199 200 203 202 202 202 204 209 213 215 215 220 219 218
252 246 227 208 224 227 211 223 236 247 257 261 262 249 222 219 227 228 226 206 198 201 200 194 196 197 197 197 196 199 198 198 200 203 203 204 202 205 208 212 215 214 215 214
242 249 245 231 225 260 242 237 233 242 246 250 266 260 120 212 244 244 245 228 213 197 195 189 185 189 195 197 196 196 197 199 200 199 199 201 202 203 207 209 212 213 213 216
245 244 239 229 214 212 229 233 238 247 252 251 254 249 142 163 230 246 272 265 212 191 188 185 183 188 192 195 199 197 198 199 196 192 195 199 202 204 208 210 211 212 215 219
265 253 255 261 265 236 230 231 233 240 247 250 251 262 245 245 256 254 250 245 221 196 195 198 192 193 196 198 199 202 202 199 196 193 194 199 205 206 207 206 208 210 212 217
264 252 253 265 272 262 252 247 239 242 253 260 261 262 265 262 267 268 249 227 214 207 193 197 202 198 198 199 199 202 202 196 196 196 199 202 203 201 202 203 206 211 212 215
266 264 262 258 256 256 255 252 247 244 249 253 258 259 268 276 263 261 251 238 226 224 218 206 192 182 181 195 200 201 201 195 193 200 203 197 196 199 202 203 205 211 215 216
251 253 260 259 256 257 249 244 244 244 245 251 254 262 264 255 263 266 271 255 247 249 249 232 211 188 182 188 189 195 199 196 197 201 202 199 201 203 206 206 208 214 216 215
246 254 255 260 255 248 254 251 250 246 245 247 256 263 265 267 267 269 284 283 270 267 266 248 231 190 177 171 170 184 186 191 199 206 210 209 209 208 205 208 211 214 218 218
234 236 249 252 249 252 246 231 235 245 247 251 257 261 268 269 247 234 358 331 300 295 294 273 223 140 92 65 100 137 187 199 213 215 219 219 217 217 213 214 215 213 214 220
215 221 239 244 251 254 254 225 252 253 247 242 256 260 265 252 246 253 3 316 323 1 25 35 65 98 99 38 50 184 207 208 231 239 233 230 226 224 223 221 217 218 218 223
212 219 233 243 248 251 274 210 226 238 261 345 285 276 265 249 290 11 11 336 29 44 38 29 14 349 16 349 12 257 283 269 261 257 246 237 231 226 223 224 221 221 224 226
246 240 234 241 247 247 75 200 245 307 343 321 303 286 278 280 309 328 319 343 3 7 8 353 328 320 305 211 219 236 259 271 269 258 247 244 239 237 226 217 220 223 227 227
245 262 267 251 260 359 334 292 299 303 298 297 293 295 283 271 274 286 292 296 306 320 325 312 296 286 274 251 240 249 267 266 257 254 246 241 239 236 229 224 220 222 224 233
241 254 261 263 258 276 284 284 283 286 287 289 289 281 275 274 279 284 287 288 288 297 297 289 282 284 287 282 278 273 275 268 248 246 246 240 230 229 229 236 233 233 233 234
267 258 258 260 271 280 270 276 279 285 284 282 279 273 271 273 276 281 284 285 287 292 296 291 289 288 288 287 289 293 295 282 256 252 253 254 247 238 245 251 262 254 255 251
251 253 258 266 282 284 287 289 289 283 280 279 278 274 271 266 271 276 280 282 281 281 286 282 284 287 289 284 283 293 300 292 274 263 257 261 259 244 241 241 256 266 251 203
Height
1496 1493 1490 1487 1486 1488 1488 1490 1491 1490 1489 1492 1492 1493 1495 1501 1504 1506 1509 1512 1515 1517 1521 1523 1526 1529 1531 1533 1536 1538 1540 1542 1545 1547 1549 1551 1553 1554 1555 1556 1557 1558 1559 1560
1494 1491 1486 1486 1488 1490 1490 1491 1491 1490 1490 1492 1492 1492 1491 1496 1500 1502 1506 1509 1512 1515 1518 1520 1523 1526 1528 1530 1533 1535 1538 1540 1543 1545 1547 1549 1551 1552 1553 1555 1555 1556 1557 1558
1490 1486 1486 1488 1489 1491 1489 1489 1490 1492 1490 1490 1493 1494 1491 1492 1496 1500 1502 1505 1508 1511 1513 1516 1519 1522 1525 1527 1529 1532 1535 1537 1540 1543 1545 1547 1548 1550 1551 1552 1553 1554 1555 1556
1485 1484 1487 1488 1488 1487 1490 1484 1488 1491 1494 1492 1492 1498 1489 1486 1490 1494 1497 1500 1503 1506 1510 1513 1516 1518 1521 1524 1526 1529 1531 1534 1537 1539 1542 1544 1546 1548 1549 1550 1552 1552 1553 1554
1485 1484 1486 1488 1485 1485 1485 1484 1486 1488 1490 1493 1489 1494 1486 1482 1487 1488 1491 1495 1498 1502 1505 1508 1511 1514 1518 1521 1523 1526 1528 1531 1533 1536 1538 1540 1543 1545 1547 1548 1549 1550 1551 1551
1481 1482 1483 1483 1482 1484 1485 1487 1488 1488 1488 1501 1489 1493 1490 1478 1481 1482 1486 1490 1494 1498 1501 1505 1508 1511 1514 1517 1520 1522 1524 1526 1529 1532 1534 1536 1539 1541 1543 1544 1546 1547 1548 1548
1484 1481 1481 1482 1483 1483 1485 1490 1498 1502 1500 1495 1483 1490 1485 1476 1478 1480 1483 1487 1491 1494 1497 1500 1504 1506 1509 1512 1515 1518 1520 1522 1525 1528 1530 1532 1535 1537 1538 1540 1542 1543 1545 1545
1485 1485 1478 1480 1480 1481 1482 1483 1497 1506 1501 1488 1486 1488 1479 1475 1479 1481 1483 1485 1488 1490 1493 1496 1499 1502 1505 1508 1511 1514 1516 1518 1521 1523 1526 1528 1530 1533 1535 1536 1538 1540 1541 1542
1479 1482 1475 1477 1478 1478 1481 1480 1475 1485 1489 1492 1483 1479 1476 1476 1477 1479 1481 1483 1485 1487 1490 1492 1495 1498 1501 1504 1506 1509 1511 1514 1516 1519 1521 1523 1526 1528 1530 1532 1533 1536 1536 1538
1476 1484 1475 1477 1478 1478 1477 1475 1479 1484 1499 1499 1487 1482 1477 1476 1475 1476 1479 1481 1483 1486 1487 1490 1492 1494 1497 1500 1503 1506 1508 1509 1512 1514 1517 1519 1521 1523 1525 1527 1529 1531 1532 1533
1476 1482 1479 1477 1480 1477 1480 1480 1480 1479 1481 1492 1493 1481 1466 1471 1473 1475 1477 1480 1481 1483 1485 1487 1489 1491 1494 1497 1499 1501 1504 1506 1508 1510 1512 1515 1517 1519 1521 1523 1525 1526 1528 1529
1479 1477 1479 1475 1472 1474 1473 1474 1477 1485 1487 1483 1485 1479 1465 1469 1472 1475 1477 1479 1481 1483 1484 1485 1487 1489 1491 1493 1495 1497 1499 1502 1504 1506 1508 1510 1512 1514 1516 1518 1520 1522 1523 1524
1482 1481 1487 1482 1479 1476 1474 1472 1471 1472 1476 1479 1483 1477 1467 1470 1473 1475 1477 1480 1481 1482 1483 1485 1486 1487 1488 1490 1492 1494 1496 1498 1500 1502 1504 1506 1508 1510 1512 1514 1516 1517 1519 1520
1485 1480 1482 1482 1473 1469 1473 1473 1472 1473 1475 1475 1473 1470 1467 1470 1472 1475 1478 1480 1480 1481 1482 1483 1484 1485 1486 1487 1489 1490 1492 1495 1497 1498 1500 1501 1503 1506 1507 1509 1511 1513 1514 1516
1483 1480 1476 1473 1469 1469 1470 1470 1470 1471 1469 1471 1468 1467 1466 1469 1472 1475 1477 1478 1480 1480 1481 1482 1482 1483 1484 1485 1485 1487 1489 1491 1493 1494 1496 1497 1499 1501 1503 1505 1507 1509 1510 1511
1483 1482 1478 1477 1471 1470 1470 1467 1466 1466 1466 1466 1465 1466 1466 1470 1473 1474 1475 1476 1477 1478 1479 1480 1480 1481 1481 1482 1483 1485 1486 1488 1489 1491 1493 1494 1495 1497 1499 1501 1503 1505 1506 1507
1481 1483 1483 1477 1469 1471 1472 1463 1462 1462 1462 1463 1465 1464 1465 1469 1471 1473 1474 1475 1476 1477 1478 1478 1479 1479 1480 1481 1481 1482 1483 1485 1486 1488 1489 1490 1491 1493 1494 1496 1498 1500 1501 1502
1485 1484 1481 1476 1477 1484 1462 1458 1458 1460 1460 1461 1462 1464 1466 1469 1472 1473 1474 1474 1474 1475 1476 1477 1477 1478 1479 1479 1480 1480 1481 1482 1484 1485 1487 1487 1488 1489 1490 1492 1493 1495 1497 1497
1481 1484 1481 1477 1475 1468 1460 1459 1461 1463 1462 1462 1463 1465 1467 1469 1470 1471 1472 1473 1473 1473 1474 1474 1475 1476 1476 1477 1477 1478 1479 1480 1481 1482 1484 1484 1485 1486 1487 1488 1489 1490 1491 1493
1479 1481 1481 1477 1479 1474 1459 1459 1462 1464 1464 1463 1464 1465 1467 1468 1466 1466 1471 1472 1472 1472 1472 1473 1474 1475 1475 1475 1475 1476 1477 1478 1479 1480 1481 1481 1482 1483 1483 1484 1485 1487 1488 1489
1477 1479 1478 1474 1473 1462 1459 1462 1464 1469 1464 1465 1465 1466 1467 1467 1468 1470 1471 1471 1471 1471 1471 1472 1472 1473 1473 1474 1474 1474 1475 1475 1476 1477 1478 1478 1479 1479 1480 1480 1481 1483 1484 1485
1472 1470 1471 1470 1471 1465 1463 1464 1465 1465 1467 1466 1466 1467 1468 1468 1469 1469 1470 1470 1470 1470 1470 1470 1471 1471 1472 1472 1472 1472 1472 1473 1473 1474 1474 1475 1475 1476 1477 1476 1476 1478 1479 1480
1471 1468 1464 1464 1464 1466 1467 1467 1468 1469 1468 1467 1467 1468 1468 1468 1468 1468 1469 1469 1469 1469 1469 1469 1469 1469 1469 1470 1470 1469 1469 1470 1470 1470 1471 1471 1471 1472 1472 1472 1472 1473 1475 1475
1469 1472 1470 1468 1462 1465 1467 1467 1467 1467 1467 1467 1466 1467 1467 1466 1467 1467 1467 1467 1467 1467 1468 1467 1467 1467 1467 1467 1467 1466 1466 1466 1466 1466 1467 1467 1467 1467 1468 1468 1469 1469 1470 1470
1470 1470 1468 1467 1465 1465 1464 1465 1465 1466 1466 1465 1465 1464 1464 1464 1464 1465 1465 1465 1465 1465 1465 1465 1465 1464 1464 1464 1464 1463 1463 1462 1463 1463 1463 1463 1463 1463 1463 1464 1464 1464 1464 1465
1469 1468 1468 1464 1465 1466 1464 1464 1463 1463 1463 1463 1462 1461 1462 1462 1462 1462 1463 1463 1462 1463 1463 1463 1463 1462 1462 1462 1461 1461 1460 1460 1460 1459 1460 1460 1460 1460 1460 1459 1459 1459 1460 1460